Flag for Spain Weather past 2 weeks in Valladolid, Spain

Now
45 °F

Sunny.


Feels Like: 40 °F
Forecast: 24 / 45 °F
Wind: 9 mph from West

Location: Valladolid / Villanubla

Current Time: Jan 27, 2015 at 6:02:57 PM

Latest Report: Jan 27, 2015 at 5:30 PM


Visibility: 10 mi

Pressure: 30.36 "Hg

Humidity: 76%

Dew point: 37 °F

Location of ValladolidLocation

Historic Weather in Valladolid — Graph

°F

Valladolid temperature yesterday

Maximum temperature yesterday: 46 °F (at 4:00 PM)
Minimum temperature yesterday: 25 °F (at 7:30 AM)
Average temperature yesterday: 37 °F

Past Weeks' High & Low Weather Summary

 TemperatureHumidityPressure
High48 °F (Jan 13, 1:00 PM)100% (Jan 12, 6:30 PM)30.48 "Hg (Jan 12, 6:30 PM)
Low23 °F (Jan 17, 7:00 AM)52% (Jan 19, 2:00 PM)29.71 "Hg (Jan 18, 6:30 PM)
Average37 °F86%30.12 "Hg
* Reported Jan 12 5:00 PM — Jan 27 5:00 PM, Valladolid, Weather by CustomWeather, © 2014

Note: Actual official high and low records may vary slightly from our data, if they occured in-between our weather recording intervals... More about our weather records

Advertising

Valladolid weather history for previous 24 hours

 ConditionsComfort  
Time TempWeatherWind HumidityBarometerVisibility
5:00 PM
Jan 27
46 °FSunny.7 mph71%30.36 "Hg10 mi
4:30 PM46 °FPassing clouds.7 mph76%30.39 "HgN/A
4:00 PM46 °FPassing clouds.3 mph76%30.39 "HgN/A
3:30 PM45 °FPassing clouds.5 mph81%30.39 "HgN/A
3:00 PM43 °FPassing clouds.6 mph81%30.39 "HgN/A
2:30 PM43 °FPassing clouds.8 mph81%30.42 "HgN/A
2:00 PM41 °FScattered clouds.8 mph87%30.42 "HgN/A
1:30 PM37 °FPartly sunny.8 mph93%30.45 "Hg4 mi
1:00 PM36 °FFog.8 mph100%30.45 "Hg1 mi
12:30 PM34 °FFog.5 mph100%30.48 "Hg1 mi
12:00 PM34 °FFog.2 mph100%30.48 "Hg0 mi
11:30 AM32 °FIce fog.2 mph100%30.48 "Hg0 mi
11:00 AM34 °FFog.2 mph93%30.45 "Hg0 mi
10:30 AM34 °FPassing clouds.1 mph93%30.45 "HgN/A
10:00 AM32 °FSunny.No wind93%30.45 "Hg10 mi
9:30 AM28 °FSunny.1 mph100%30.45 "Hg10 mi
9:00 AM28 °FSunny.3 mph100%30.45 "Hg10 mi
8:30 AM28 °FClear.3 mph100%30.45 "Hg10 mi
8:00 AM27 °FClear.1 mph93%30.45 "Hg10 mi
7:30 AM28 °FPassing clouds.5 mph100%30.45 "HgN/A
7:00 AM28 °FClear.5 mph93%30.45 "Hg10 mi
9:30 PM
Jan 26
34 °FClear.2 mph93%30.45 "Hg10 mi
9:00 PM36 °FClear.5 mph87%30.45 "Hg10 mi
8:30 PM36 °FClear.6 mph93%30.45 "Hg10 mi
8:00 PM34 °FClear.5 mph93%30.45 "Hg10 mi
7:30 PM37 °FClear.5 mph81%30.45 "Hg10 mi
7:00 PM37 °FClear.5 mph87%30.42 "Hg10 mi
6:30 PM39 °FClear.5 mph81%30.42 "Hg10 mi
6:00 PM41 °FSunny.6 mph76%30.42 "Hg10 mi
Weather by CustomWeather, © 2014

See weather overviewHow to use our weather pages